Wind_Speed
56 53 55 54 51 47 52 52 52 52 50 46 46 42 39 38 36 30 29 30 30 29 28 29 29 31 30 29 24 23 20 20 23 23 24 26 25 29 30 27 23 22 24 26 26 28 30 31 29
59 57 54 53 50 52 54 56 57 53 50 48 48 47 46 41 39 38 36 33 31 30 32 35 34 33 32 29 27 25 26 23 23 25 25 26 25 27 24 23 24 26 26 28 28 29 30 33 25
63 62 57 50 46 49 58 59 57 54 52 50 49 49 50 46 42 41 41 38 36 34 34 34 34 32 32 32 29 30 29 27 25 27 28 25 27 25 24 25 26 27 29 30 31 32 32 32 28
69 67 61 55 49 55 59 58 58 55 53 53 53 50 51 52 50 46 46 44 42 40 38 38 38 38 37 37 35 33 33 32 32 29 29 27 26 26 27 27 28 29 30 33 35 33 40 39 28
76 71 66 59 58 61 63 59 57 54 53 56 56 54 55 52 50 48 48 48 47 47 47 46 43 42 40 38 37 37 37 34 35 35 33 34 32 28 29 29 31 32 33 34 34 34 36 39 31
82 78 72 64 64 64 67 65 60 56 54 55 58 58 58 57 53 50 50 47 49 49 48 47 46 44 43 43 42 41 41 39 40 39 37 39 34 32 32 32 34 34 31 31 32 33 35 30 28
88 84 76 74 70 69 72 70 66 63 59 53 56 58 56 59 56 54 54 52 51 50 50 48 47 48 49 49 47 46 43 43 41 36 31 30 31 32 34 35 36 34 29 31 32 35 35 35 40
92 90 84 78 77 76 77 75 75 70 64 60 54 54 56 50 58 59 58 57 55 55 54 52 50 50 50 49 47 44 43 39 38 34 32 33 34 34 36 37 39 38 33 34 38 42 39 39 42
99 90 86 83 86 88 82 83 79 76 70 64 61 57 51 56 54 53 55 57 55 55 56 55 50 48 48 48 46 43 42 41 39 37 37 38 38 38 38 37 39 37 36 42 45 47 46 45 45
101 97 93 94 93 96 91 89 84 79 74 70 67 65 59 56 56 54 53 54 53 51 50 48 49 47 49 50 48 45 45 45 44 43 44 42 43 42 43 42 44 45 46 48 49 53 52 51 48
104 100 106 103 104 101 95 92 89 85 79 73 72 70 67 62 61 59 57 56 56 56 57 53 51 51 54 54 53 50 48 49 50 49 49 53 53 52 51 51 52 50 52 50 53 56 57 57 53
106 106 106 109 108 105 99 99 94 88 85 80 76 73 71 69 67 66 64 64 62 62 59 57 59 61 63 62 60 59 57 55 55 56 58 57 58 59 59 58 58 59 58 56 58 58 59 60 60
106 108 108 109 114 110 106 101 96 91 91 87 83 78 76 74 71 73 72 71 69 67 67 65 64 64 66 66 65 64 63 64 63 62 62 62 62 62 63 64 63 64 65 67 66 65 65 65 65
103 108 109 110 112 115 113 107 102 97 97 93 89 86 84 82 80 78 77 75 75 73 72 70 70 71 72 74 74 72 70 69 67 67 68 67 66 66 67 68 69 70 70 70 69 68 68 70 71
90 97 110 111 111 112 117 114 109 105 101 101 99 96 91 88 86 86 85 81 79 79 76 74 74 78 80 80 79 78 76 74 71 68 69 70 72 73 73 74 74 74 76 77 77 76 76 77 78
81 86 97 103 110 112 114 113 114 111 107 108 105 104 99 95 93 94 92 89 88 86 86 83 81 82 83 83 84 84 83 82 81 79 76 76 76 76 76 75 77 82 83 82 82 80 79 83 83
84 79 80 83 95 106 108 108 117 116 117 117 114 108 105 101 100 97 97 96 95 94 92 90 88 88 87 87 88 89 87 86 85 87 86 85 84 85 86 86 87 88 89 88 87 84 87 84 86
81 86 86 83 81 86 94 102 105 115 118 121 120 114 109 104 104 104 103 102 100 96 95 96 94 92 94 93 91 91 91 90 91 90 89 87 88 90 90 89 90 92 93 92 90 93 95 96 95
91 89 88 87 82 74 85 94 98 108 110 114 117 116 113 111 110 109 106 107 105 103 100 99 99 101 98 97 97 96 97 98 98 97 97 95 95 97 97 97 98 97 96 94 91 94 95 100 99
91 91 87 89 87 84 82 84 86 91 104 107 107 109 110 107 109 110 112 109 107 108 108 108 107 105 104 103 105 105 104 103 103 102 102 101 101 100 100 101 100 100 99 98 98 98 100 100 97
94 91 90 91 89 90 90 88 83 81 91 97 100 107 109 107 105 104 105 109 112 110 111 112 112 111 110 106 107 109 109 109 109 109 106 106 106 105 102 103 102 102 105 104 106 106 105 104 103
98 94 95 95 94 93 95 88 84 78 83 84 90 91 98 103 104 103 106 109 108 110 112 111 112 111 110 110 110 110 110 111 112 111 110 109 107 108 106 106 106 106 109 109 109 108 110 110 109
94 102 98 96 96 99 98 93 85 79 83 81 83 86 82 83 91 96 100 104 105 109 109 110 111 113 112 112 112 112 112 112 112 111 114 114 112 111 111 112 109 107 102 101 99 104 108 107 107
107 109 105 102 100 101 92 92 91 82 81 82 81 80 85 85 86 85 89 98 104 110 112 113 113 114 115 114 115 115 115 117 118 117 117 118 118 117 115 112 107 104 103 101 98 96 92 95 97
110 112 110 112 112 86 87 91 86 84 84 80 78 76 73 74 79 81 80 86 92 98 100 103 106 108 111 112 112 110 109 111 114 114 115 115 115 114 112 110 103 102 101 105 106 104 103 101 101
97 109 107 105 97 88 91 86 85 80 79 78 76 76 74 73 71 73 73 74 82 86 87 89 90 92 91 88 87 85 82 81 82 85 87 93 96 97 93 97 95 91 91 90 88 86 91 92 90
90 100 104 106 99 102 95 90 82 79 79 78 76 77 78 75 70 66 70 70 74 79 79 81 81 83 83 81 79 77 74 73 73 71 74 77 78 79 81 81 83 83 84 85 86 83 84 87 84
74 88 103 112 106 104 100 93 88 82 79 76 75 71 71 73 73 72 71 70 70 73 75 78 76 78 79 79 77 76 76 72 68 67 68 69 70 74 75 77 79 80 81 80 81 82 81 80 80
71 83 97 100 103 99 97 94 92 86 84 79 75 73 71 71 70 69 69 67 69 70 71 72 74 76 76 75 75 74 70 65 65 65 65 64 64 64 65 69 72 76 76 77 80 82 81 81 83
69 76 82 94 101 100 99 98 92 85 83 82 80 76 73 72 71 70 70 70 67 66 68 67 67 67 68 68 65 63 61 62 59 56 51 54 58 61 62 62 65 69 69 69 71 73 76 79 83
Wind_Direction
218 215 216 215 211 212 219 220 222 221 223 221 219 220 221 223 222 219 222 228 223 219 220 219 227 233 229 229 232 238 244 261 266 273 273 274 274 281 277 285 291 296 308 311 313 316 316 315 325
217 219 217 216 217 212 216 221 223 220 222 223 222 223 222 224 221 220 224 226 225 223 218 219 221 227 231 234 238 243 250 259 266 266 267 276 277 275 284 288 288 294 301 303 309 312 318 312 324
219 219 219 217 216 217 217 217 220 221 220 223 225 226 226 226 227 226 224 227 229 226 231 232 230 237 239 241 249 259 261 265 270 267 270 263 279 279 284 286 289 288 294 302 307 309 316 301 304
219 220 218 219 217 219 223 218 218 218 220 224 227 228 231 230 231 229 229 225 225 224 225 228 234 243 250 252 254 260 258 259 264 262 262 265 272 272 279 285 288 293 299 307 305 306 317 300 295
220 221 222 219 219 222 225 223 222 217 215 219 223 226 227 228 229 232 231 230 230 232 234 237 239 244 246 247 253 256 258 259 264 265 266 263 270 277 282 287 288 293 299 307 301 302 301 322 301
221 221 223 222 222 225 228 228 227 221 216 218 220 224 224 227 232 234 238 237 236 236 238 239 244 249 248 244 247 252 258 260 261 265 261 262 268 270 278 284 291 301 301 301 308 304 307 308 306
220 221 222 223 223 225 232 232 232 227 221 219 221 224 225 225 227 231 234 236 236 237 239 242 244 247 249 250 252 256 256 258 263 264 267 266 270 274 278 283 290 297 285 294 313 310 316 307 310
225 220 221 224 225 224 228 232 232 229 226 220 221 223 225 226 227 229 232 237 236 239 241 244 248 251 251 252 254 254 255 253 255 259 264 270 273 277 284 285 288 291 281 289 305 314 312 313 315
226 224 222 224 226 225 226 230 231 233 226 223 219 223 227 227 225 227 232 236 239 240 241 243 245 245 248 250 251 251 253 255 256 263 264 270 272 276 279 286 289 285 278 284 294 303 308 309 310
229 225 225 225 228 228 226 230 232 233 233 227 222 224 225 227 230 228 229 231 233 238 241 240 239 242 247 248 248 250 253 256 259 266 270 268 275 277 279 278 285 286 286 284 285 295 301 302 309
229 227 226 226 229 231 229 230 230 234 234 232 229 225 227 229 230 233 234 235 235 237 238 241 243 245 248 249 250 253 256 256 265 267 271 269 274 277 281 278 285 281 286 288 290 290 299 301 306
228 227 228 228 230 232 231 232 232 233 236 236 233 230 228 229 232 233 235 237 239 241 241 245 249 250 251 254 254 253 256 262 267 268 270 272 272 276 280 281 281 282 284 283 287 290 292 298 302
228 228 228 229 229 231 232 234 234 235 237 238 237 234 233 231 233 234 234 236 237 241 244 247 247 249 254 257 257 258 259 261 262 266 270 273 275 275 277 279 283 286 288 288 289 287 289 293 295
227 229 229 229 231 232 233 233 235 235 235 237 238 238 237 237 237 236 236 236 237 239 243 246 248 251 255 257 259 260 260 261 263 266 269 272 274 276 277 279 281 283 285 286 287 288 287 289 292
229 227 229 231 231 232 232 232 233 235 235 235 236 238 236 236 239 239 238 239 240 240 242 245 248 251 254 258 260 261 261 263 265 266 268 271 273 274 275 278 281 283 284 286 286 286 288 290 291
233 228 227 230 232 232 233 233 233 233 235 239 237 237 238 238 238 240 241 242 244 244 244 246 248 251 254 257 261 262 263 265 267 268 269 270 271 274 276 277 281 283 285 286 285 285 286 289 291
234 232 227 229 231 232 232 233 234 233 235 236 238 238 237 239 241 241 243 243 243 245 247 249 250 253 255 258 260 262 265 267 269 270 271 272 273 275 277 279 281 282 283 284 283 284 288 288 289
229 232 229 227 227 232 232 232 234 232 234 235 238 238 239 240 243 244 245 246 248 247 248 251 252 254 256 258 261 263 264 266 267 268 270 272 275 277 278 278 279 281 283 282 283 284 287 288 288
224 226 228 227 223 221 227 230 233 235 234 236 237 238 239 240 241 243 246 248 250 250 251 251 252 255 257 259 260 261 263 266 268 270 272 274 274 276 277 279 279 279 280 281 281 281 283 284 287
222 220 223 224 222 221 224 224 227 232 235 236 237 238 239 240 242 244 246 248 250 251 252 254 254 255 256 259 261 261 263 266 268 269 271 272 272 274 274 274 275 276 276 276 277 279 278 282 284
219 219 221 225 224 223 223 225 225 229 233 234 237 239 239 240 243 244 244 246 248 250 251 253 255 257 257 259 261 262 265 267 268 269 272 272 273 273 273 272 274 276 277 278 279 280 281 282 282
216 218 218 220 222 221 221 222 223 226 231 235 236 238 240 241 240 241 242 241 243 246 249 253 255 256 257 258 259 262 264 265 266 267 269 270 272 273 274 275 275 276 277 277 277 278 279 281 283
213 219 216 217 221 221 220 221 225 226 232 234 238 239 241 240 239 239 242 244 245 246 248 250 253 255 257 259 261 262 263 263 264 266 267 268 269 270 271 271 270 271 272 274 275 276 276 278 279
214 215 216 214 219 220 220 222 224 224 229 232 235 238 242 244 245 244 245 248 249 250 250 252 253 255 257 258 260 262 263 264 266 267 268 268 269 270 269 269 270 270 270 270 272 272 273 273 273
214 215 214 215 217 214 220 222 225 224 228 229 232 234 236 239 242 243 244 245 248 252 253 255 257 259 261 263 265 267 269 270 270 270 270 272 271 273 271 270 273 275 275 274 275 276 278 280 283
218 217 218 219 217 215 217 219 224 224 228 231 233 235 236 238 241 242 245 247 251 251 252 256 259 260 263 265 267 269 270 270 271 273 274 273 273 270 270 270 271 272 273 276 279 279 279 282 284
221 217 217 217 214 215 213 216 219 223 227 231 233 235 237 240 242 247 248 249 252 255 258 259 261 264 267 268 270 271 272 274 274 274 273 270 268 266 266 267 269 270 272 275 277 279 281 282 283
217 218 217 215 212 215 213 214 216 219 222 229 232 235 237 238 240 243 246 250 254 258 260 263 264 266 267 269 272 272 275 278 277 273 271 269 265 264 265 263 266 270 271 273 274 275 277 279 280
218 217 216 214 214 213 214 214 215 217 220 224 229 233 236 239 241 243 245 248 254 258 262 263 267 267 268 271 273 276 279 275 272 271 266 265 265 265 265 265 266 267 268 271 274 276 278 279 280
213 213 215 217 213 212 214 216 215 217 222 225 229 231 234 238 241 243 246 250 254 256 259 263 262 266 270 273 273 273 275 276 274 271 269 269 269 269 270 271 273 273 274 276 278 280 280 279 281
Height
10917 10921 10925 10930 10937 10941 10943 10945 10949 10953 10959 10962 10965 10968 10970 10973 10977 10981 10980 10981 10983 10984 10985 10986 10988 10989 10988 10989 10991 10993 10995 10997 10998 10999 10998 10998 10999 10999 10999 10998 10997 10995 10995 10995 10993 10991 10989 10987 10987
10909 10914 10917 10924 10931 10934 10933 10935 10939 10947 10953 10956 10958 10961 10964 10969 10971 10974 10975 10978 10980 10980 10980 10981 10982 10983 10985 10986 10988 10990 10991 10993 10994 10994 10994 10995 10995 10995 10996 10995 10994 10994 10993 10990 10988 10987 10986 10984 10982
10900 10904 10910 10918 10925 10929 10919 10923 10931 10941 10945 10948 10952 10954 10957 10962 10965 10967 10969 10972 10974 10975 10978 10979 10979 10981 10983 10984 10985 10986 10988 10989 10990 10990 10991 10991 10991 10991 10991 10990 10989 10988 10988 10986 10985 10983 10982 10978 10977
10889 10895 10903 10911 10916 10911 10911 10917 10924 10931 10938 10942 10945 10949 10950 10953 10957 10962 10964 10966 10968 10970 10971 10973 10975 10977 10979 10980 10981 10981 10982 10983 10984 10985 10986 10987 10987 10987 10987 10987 10986 10985 10984 10982 10981 10980 10977 10971 10972
10877 10886 10894 10904 10906 10901 10901 10909 10917 10923 10930 10934 10937 10941 10943 10945 10950 10954 10957 10960 10962 10964 10966 10967 10969 10972 10974 10975 10976 10976 10977 10979 10979 10980 10981 10982 10983 10983 10982 10982 10981 10980 10980 10978 10977 10974 10971 10969 10967
10866 10874 10885 10893 10893 10889 10891 10897 10907 10915 10921 10926 10928 10932 10936 10938 10943 10947 10950 10954 10956 10957 10959 10961 10963 10965 10967 10968 10968 10969 10970 10972 10972 10973 10974 10975 10976 10976 10976 10976 10975 10976 10974 10973 10972 10969 10966 10965 10963
10852 10861 10874 10877 10880 10881 10880 10887 10897 10903 10912 10920 10922 10925 10929 10934 10938 10940 10942 10945 10948 10950 10952 10954 10956 10958 10958 10959 10961 10961 10963 10964 10966 10968 10969 10969 10970 10970 10970 10970 10969 10970 10968 10967 10965 10964 10962 10960 10958
10836 10848 10859 10867 10869 10867 10866 10874 10878 10890 10902 10909 10917 10919 10919 10929 10931 10934 10935 10936 10940 10942 10944 10947 10948 10950 10951 10952 10952 10954 10956 10957 10959 10961 10963 10964 10964 10964 10964 10964 10964 10963 10961 10960 10959 10958 10956 10954 10951
10819 10838 10854 10856 10850 10844 10856 10852 10866 10876 10890 10900 10906 10908 10919 10916 10922 10926 10930 10930 10931 10934 10936 10939 10942 10942 10942 10943 10944 10946 10949 10951 10954 10956 10957 10958 10958 10958 10958 10957 10957 10956 10955 10954 10952 10951 10949 10947 10944
10802 10823 10832 10826 10830 10824 10838 10843 10854 10866 10876 10889 10896 10901 10904 10910 10914 10918 10921 10923 10925 10925 10928 10931 10934 10935 10934 10934 10936 10938 10942 10944 10947 10949 10950 10950 10950 10950 10950 10950 10949 10949 10948 10947 10945 10944 10941 10940 10937
10784 10805 10797 10805 10804 10812 10826 10832 10843 10851 10863 10876 10884 10890 10896 10901 10905 10909 10913 10914 10916 10918 10920 10923 10926 10926 10924 10925 10927 10931 10934 10937 10939 10941 10941 10941 10941 10942 10941 10941 10940 10941 10940 10939 10937 10936 10932 10929 10928
10763 10775 10781 10789 10790 10798 10813 10816 10830 10844 10850 10859 10871 10879 10886 10890 10894 10899 10902 10905 10907 10908 10913 10916 10916 10914 10912 10915 10918 10921 10925 10928 10930 10931 10932 10933 10933 10933 10932 10931 10931 10930 10931 10930 10927 10926 10924 10921 10919
10745 10753 10761 10768 10771 10782 10793 10807 10820 10835 10838 10846 10855 10866 10873 10877 10881 10885 10889 10893 10897 10899 10901 10903 10904 10902 10901 10904 10906 10910 10915 10917 10919 10921 10921 10922 10923 10923 10922 10921 10921 10921 10920 10919 10918 10917 10914 10912 10910
10723 10730 10740 10747 10758 10763 10777 10791 10801 10815 10819 10829 10838 10847 10855 10861 10866 10871 10875 10878 10882 10886 10888 10891 10894 10892 10890 10889 10892 10896 10902 10904 10909 10912 10911 10911 10912 10912 10912 10911 10911 10910 10909 10908 10906 10906 10903 10900 10898
10701 10709 10720 10730 10737 10744 10751 10771 10785 10790 10801 10808 10815 10822 10835 10845 10850 10852 10857 10864 10867 10871 10876 10880 10881 10880 10878 10878 10879 10883 10887 10889 10895 10900 10900 10901 10900 10900 10900 10899 10898 10898 10896 10894 10892 10892 10889 10887 10885
10682 10690 10702 10710 10716 10724 10733 10750 10760 10775 10786 10784 10796 10804 10815 10827 10832 10835 10843 10848 10852 10858 10860 10864 10866 10867 10866 10866 10866 10868 10872 10876 10881 10884 10887 10888 10888 10888 10887 10885 10884 10882 10881 10880 10880 10878 10877 10873 10871
10665 10683 10683 10685 10694 10701 10714 10726 10735 10751 10755 10761 10768 10784 10797 10808 10816 10822 10824 10830 10837 10841 10846 10851 10854 10852 10851 10852 10853 10855 10859 10863 10865 10865 10869 10872 10875 10874 10873 10872 10871 10867 10865 10865 10865 10864 10861 10858 10854
10656 10656 10662 10668 10677 10683 10696 10706 10702 10720 10726 10739 10747 10767 10783 10796 10800 10805 10808 10813 10821 10827 10833 10836 10838 10836 10837 10840 10842 10843 10844 10845 10846 10849 10852 10857 10857 10857 10856 10856 10854 10850 10850 10850 10851 10848 10843 10838 10837
10616 10633 10643 10650 10656 10664 10669 10678 10686 10697 10707 10721 10733 10746 10763 10776 10781 10787 10793 10799 10802 10807 10813 10817 10819 10819 10823 10825 10826 10827 10825 10826 10828 10831 10834 10839 10842 10840 10838 10837 10835 10833 10832 10832 10832 10830 10827 10821 10819
10592 10610 10624 10629 10637 10649 10649 10661 10669 10676 10690 10704 10713 10725 10743 10752 10763 10772 10779 10783 10785 10787 10790 10793 10797 10802 10806 10811 10810 10807 10809 10810 10812 10813 10816 10818 10819 10820 10819 10818 10819 10815 10814 10813 10814 10813 10807 10804 10800
10574 10593 10604 10611 10622 10629 10633 10643 10656 10660 10672 10687 10697 10705 10719 10733 10747 10755 10762 10765 10766 10767 10767 10769 10776 10783 10789 10796 10792 10792 10797 10797 10796 10797 10798 10797 10797 10799 10800 10800 10799 10798 10796 10796 10793 10791 10787 10785 10782
10551 10567 10573 10587 10600 10611 10614 10632 10638 10646 10661 10673 10683 10691 10701 10716 10727 10735 10739 10743 10747 10745 10749 10757 10761 10766 10772 10776 10774 10778 10782 10781 10778 10779 10779 10777 10778 10778 10780 10780 10779 10779 10776 10773 10771 10770 10767 10764 10762
10539 10530 10552 10566 10578 10582 10600 10612 10631 10638 10651 10661 10669 10681 10689 10697 10706 10714 10717 10722 10727 10732 10735 10739 10743 10746 10752 10756 10759 10761 10760 10759 10759 10762 10760 10759 10756 10756 10759 10760 10759 10755 10753 10749 10750 10748 10748 10746 10741
10489 10501 10523 10543 10549 10558 10596 10608 10613 10634 10642 10648 10658 10667 10675 10684 10692 10699 10703 10707 10709 10713 10722 10725 10726 10729 10732 10735 10738 10743 10740 10739 10741 10742 10741 10736 10735 10735 10735 10735 10734 10733 10733 10733 10732 10731 10727 10722 10718
10467 10484 10501 10513 10515 10585 10588 10596 10616 10624 10627 10638 10646 10655 10664 10670 10676 10683 10688 10693 10696 10698 10702 10705 10709 10712 10716 10720 10725 10726 10725 10722 10721 10720 10719 10716 10715 10713 10711 10709 10708 10709 10709 10711 10710 10706 10702 10700 10698
10465 10475 10501 10522 10551 10577 10572 10588 10598 10615 10619 10628 10637 10645 10651 10656 10665 10671 10675 10678 10681 10685 10688 10689 10695 10699 10704 10707 10707 10707 10707 10706 10704 10703 10701 10698 10695 10694 10692 10690 10690 10690 10689 10689 10688 10686 10683 10682 10679
10438 10460 10492 10501 10530 10527 10554 10567 10588 10600 10606 10615 10626 10633 10640 10647 10653 10659 10662 10665 10666 10670 10672 10675 10679 10683 10687 10689 10690 10691 10690 10688 10687 10685 10681 10680 10677 10675 10674 10674 10674 10675 10674 10672 10669 10669 10665 10663 10661
10434 10444 10450 10470 10497 10518 10542 10557 10569 10581 10593 10601 10611 10621 10628 10635 10641 10644 10648 10651 10653 10655 10659 10662 10665 10667 10669 10672 10674 10673 10673 10673 10671 10668 10665 10663 10662 10661 10660 10660 10658 10657 10656 10655 10653 10652 10650 10646 10643
10412 10425 10444 10471 10489 10509 10530 10544 10554 10567 10577 10587 10596 10606 10614 10621 10627 10632 10637 10640 10642 10644 10648 10650 10652 10653 10656 10658 10658 10658 10659 10657 10655 10653 10651 10649 10648 10647 10646 10644 10643 10642 10640 10637 10637 10635 10633 10630 10625
10394 10411 10432 10453 10482 10501 10512 10528 10544 10557 10570 10577 10583 10592 10600 10607 10614 10620 10625 10629 10633 10633 10635 10639 10640 10641 10642 10643 10643 10645 10646 10644 10642 10639 10637 10636 10634 10634 10633 10632 10629 10628 10625 10624 10622 10620 10616 10612 10608